Radiation Dose at Monitoring Post of Fukushima Daini Nuclear Power Station
Date,Time,MP-1(microSv/h),MP-2(microSv/h),MP-3(microSv/h),MP-4(microSv/h),MP-5(microSv/h),MP-6(microSv/h),MP-7(microSv/h),Wind Direction,Wind Velocity(m/s),Rain
2016/05/30,00:00,0.448,0.261,0.474,0.418,0.396,0.211,0.184,-,CALM,No
2016/05/30,00:10,0.454,0.261,0.472,0.417,0.393,0.211,0.185,south-southeast,0.5,No
2016/05/30,00:20,0.449,0.262,0.475,0.420,0.394,0.212,0.183,south-southeast,1.0,No
2016/05/30,00:30,0.453,0.261,0.471,0.416,0.392,0.211,0.184,south-southeast,0.9,No
2016/05/30,00:40,0.452,0.261,0.476,0.421,0.395,0.212,0.184,south,1.1,No
2016/05/30,00:50,0.452,0.261,0.472,0.417,0.394,0.211,0.185,south-southeast,0.7,No
2016/05/30,01:00,0.452,0.261,0.477,0.421,0.395,0.211,0.184,south-southeast,0.7,No
2016/05/30,01:10,0.449,0.261,0.472,0.417,0.395,0.212,0.185,south-southeast,1.4,No
2016/05/30,01:20,0.454,0.259,0.475,0.420,0.393,0.211,0.184,south-southwest,1.6,No
2016/05/30,01:30,0.448,0.261,0.473,0.416,0.394,0.210,0.185,south-southwest,1.1,No
2016/05/30,01:40,0.454,0.260,0.476,0.422,0.393,0.211,0.184,south,1.3,No
2016/05/30,01:50,0.449,0.261,0.473,0.416,0.395,0.211,0.185,south,2.5,No
2016/05/30,02:00,0.453,0.260,0.473,0.419,0.390,0.209,0.182,south,2.5,No
2016/05/30,02:10,0.450,0.262,0.476,0.418,0.395,0.212,0.185,south,2.0,No
2016/05/30,02:20,0.450,0.260,0.471,0.418,0.391,0.211,0.184,southwest,1.0,No
2016/05/30,02:30,0.452,0.262,0.477,0.422,0.395,0.212,0.185,west-northwest,0.5,No
2016/05/30,02:40,0.452,0.261,0.473,0.418,0.394,0.212,0.184,north,1.3,No
2016/05/30,02:50,0.453,0.262,0.478,0.423,0.394,0.213,0.185,north,1.6,No
2016/05/30,03:00,0.449,0.262,0.474,0.416,0.395,0.212,0.184,north,1.9,Yes
2016/05/30,03:10,0.455,0.263,0.475,0.422,0.393,0.213,0.186,north,2.0,Yes
2016/05/30,03:20,0.450,0.260,0.474,0.419,0.396,0.212,0.185,north,2.6,No
2016/05/30,03:30,0.452,0.261,0.473,0.420,0.393,0.212,0.184,-,CALM,No
2016/05/30,03:40,0.451,0.261,0.475,0.419,0.398,0.211,0.184,north-northeast,1.8,No
2016/05/30,03:50,0.452,0.261,0.472,0.421,0.392,0.211,0.185,north-northeast,2.3,No
2016/05/30,04:00,0.452,0.261,0.478,0.419,0.396,0.212,0.184,north-northeast,1.2,Yes
2016/05/30,04:10,0.451,0.260,0.472,0.419,0.392,0.211,0.185,north,1.4,No
2016/05/30,04:20,0.455,0.262,0.478,0.418,0.394,0.213,0.184,north,1.0,No
2016/05/30,04:30,0.449,0.260,0.473,0.416,0.395,0.210,0.184,-,CALM,No
2016/05/30,04:40,0.453,0.263,0.476,0.421,0.394,0.212,0.185,north-northwest,0.6,No
2016/05/30,04:50,0.448,0.259,0.474,0.417,0.395,0.211,0.185,north-northwest,0.7,No
2016/05/30,05:00,0.451,0.262,0.474,0.419,0.393,0.210,0.184,northwest,0.5,No
2016/05/30,05:10,0.451,0.260,0.476,0.417,0.393,0.211,0.184,south-southwest,1.6,Yes
2016/05/30,05:20,0.451,0.262,0.472,0.420,0.391,0.212,0.184,south,2.6,Yes
2016/05/30,05:30,0.452,0.260,0.475,0.419,0.397,0.211,0.185,south-southwest,3.8,Yes
2016/05/30,05:40,0.450,0.263,0.473,0.417,0.391,0.212,0.184,south-southwest,6.7,Yes
2016/05/30,05:50,0.454,0.261,0.478,0.421,0.397,0.211,0.185,south-southwest,6.1,Yes
2016/05/30,06:00,0.450,0.262,0.474,0.419,0.393,0.213,0.185,south-southwest,4.2,Yes
2016/05/30,06:10,0.455,0.263,0.478,0.421,0.396,0.214,0.185,south-southwest,4.7,No
2016/05/30,06:20,0.451,0.261,0.475,0.419,0.393,0.212,0.185,south-southwest,5.9,No
2016/05/30,06:30,0.453,0.261,0.473,0.422,0.395,0.213,0.185,south-southwest,7.1,No
2016/05/30,06:40,0.452,0.261,0.475,0.417,0.393,0.211,0.185,south-southwest,6.3,No
2016/05/30,06:50,0.451,0.262,0.473,0.421,0.392,0.211,0.185,south-southwest,7.3,No
2016/05/30,07:00,0.451,0.260,0.477,0.416,0.394,0.211,0.184,south-southwest,8.3,No
2016/05/30,07:10,0.449,0.261,0.470,0.418,0.390,0.209,0.184,south-southwest,6.9,No
2016/05/30,07:20,0.453,0.258,0.476,0.418,0.394,0.210,0.183,south-southwest,6.1,No
2016/05/30,07:30,0.449,0.261,0.473,0.415,0.388,0.210,0.184,southwest,4.2,No
2016/05/30,07:40,0.452,0.260,0.472,0.420,0.393,0.209,0.183,southwest,4.4,No
2016/05/30,07:50,0.448,0.261,0.473,0.415,0.393,0.211,0.184,southwest,3.7,No
2016/05/30,08:00,0.452,0.260,0.471,0.419,0.391,0.211,0.184,southwest,3.5,No
2016/05/30,08:10,0.453,0.261,0.476,0.417,0.395,0.210,0.184,southwest,2.7,No
2016/05/30,08:20,0.450,0.260,0.469,0.416,0.390,0.210,0.183,south-southwest,4.0,No
2016/05/30,08:30,0.453,0.260,0.475,0.419,0.391,0.210,0.185,south-southwest,3.2,No
2016/05/30,08:40,0.448,0.261,0.472,0.416,0.395,0.211,0.183,south-southwest,2.6,No
2016/05/30,08:50,0.451,0.260,0.471,0.419,0.389,0.209,0.184,south-southwest,4.0,No
2016/05/30,09:00,0.450,0.260,0.475,0.418,0.395,0.210,0.183,south-southwest,3.6,No
2016/05/30,09:10,0.451,0.259,0.471,0.415,0.392,0.210,0.182,south-southwest,3.5,No
2016/05/30,09:20,0.452,0.259,0.472,0.419,0.388,0.210,0.184,south-southwest,2.6,No
2016/05/30,09:30,0.448,0.261,0.474,0.415,0.392,0.210,0.183,south,2.9,No
2016/05/30,09:40,0.450,0.260,0.470,0.410,0.392,0.210,0.185,south,3.7,No
2016/05/30,09:50,0.450,0.258,0.469,0.418,0.390,0.209,0.183,south,4.5,No
2016/05/30,10:00,0.446,0.261,0.475,0.418,0.386,0.209,0.182,south,3.8,No
2016/05/30,10:10,0.451,0.258,0.471,0.414,0.393,0.210,0.183,south,4.5,No
2016/05/30,10:20,0.448,0.256,0.469,0.415,0.394,0.209,0.183,south,3.6,No
2016/05/30,10:30,0.445,0.258,0.476,0.418,0.387,0.209,0.181,south,4.2,No
2016/05/30,10:40,0.452,0.260,0.472,0.416,0.390,0.210,0.183,south,4.1,No
2016/05/30,10:50,0.449,0.256,0.469,0.414,0.394,0.209,0.183,south,1.9,No
2016/05/30,11:00,0.445,0.258,0.477,0.419,0.393,0.208,0.181,south,3.6,No
2016/05/30,11:10,0.451,0.261,0.472,0.418,0.388,0.210,0.182,south,4.0,No
2016/05/30,11:20,0.449,0.259,0.468,0.413,0.393,0.209,0.183,south,4.7,No
2016/05/30,11:30,0.446,0.256,0.472,0.417,0.394,0.209,0.183,south,4.4,No
2016/05/30,11:40,0.450,0.258,0.473,0.418,0.391,0.209,0.181,south,5.0,No
2016/05/30,11:50,0.450,0.261,0.469,0.416,0.386,0.210,0.183,south,4.9,No
2016/05/30,12:00,0.446,0.258,0.470,0.413,0.393,0.209,0.182,south,5.0,No
2016/05/30,12:10,0.447,0.257,0.474,0.419,0.393,0.208,0.182,south,4.2,No
2016/05/30,12:20,0.451,0.260,0.470,0.418,0.390,0.210,0.181,south,4.3,No
2016/05/30,12:30,0.449,0.259,0.469,0.412,0.389,0.210,0.183,south,5.0,No
2016/05/30,12:40,0.446,0.258,0.474,0.419,0.395,0.209,0.182,south,4.1,No
2016/05/30,12:50,0.454,0.261,0.473,0.419,0.394,0.208,0.181,south,4.1,No
2016/05/30,13:00,0.451,0.260,0.469,0.414,0.390,0.210,0.183,south-southeast,3.7,No
2016/05/30,13:10,0.450,0.257,0.478,0.415,0.392,0.210,0.182,east-southeast,1.2,No
2016/05/30,13:20,0.452,0.260,0.475,0.421,0.396,0.209,0.181,east,1.6,No
2016/05/30,13:30,0.449,0.258,0.470,0.416,0.390,0.209,0.183,east-northeast,2.3,No
2016/05/30,13:40,0.453,0.260,0.477,0.417,0.393,0.209,0.183,east-northeast,1.9,No
2016/05/30,13:50,0.450,0.260,0.473,0.419,0.394,0.209,0.184,east-northeast,1.9,No
2016/05/30,14:00,0.447,0.259,0.473,0.415,0.389,0.210,0.183,east-northeast,1.0,No
2016/05/30,14:10,0.452,0.260,0.478,0.418,0.395,0.209,0.183,east-northeast,1.5,No
2016/05/30,14:20,0.447,0.259,0.470,0.419,0.393,0.210,0.184,east-northeast,1.9,No
2016/05/30,14:30,0.452,0.259,0.472,0.415,0.390,0.210,0.183,east,1.9,No
2016/05/30,14:40,0.451,0.259,0.474,0.419,0.394,0.209,0.183,east,1.3,No
2016/05/30,14:50,0.448,0.260,0.471,0.418,0.392,0.210,0.182,east-northeast,1.9,No
2016/05/30,15:00,0.455,0.260,0.474,0.413,0.389,0.210,0.182,east,1.1,No
2016/05/30,15:10,0.449,0.258,0.473,0.420,0.395,0.210,0.183,-,CALM,No
2016/05/30,15:20,0.451,0.260,0.470,0.418,0.392,0.208,0.183,north,1.6,No
2016/05/30,15:30,0.451,0.260,0.476,0.415,0.389,0.208,0.182,north,1.3,No
2016/05/30,15:40,0.446,0.257,0.471,0.420,0.396,0.210,0.183,north,2.1,No
2016/05/30,15:50,0.451,0.261,0.473,0.414,0.390,0.210,0.183,north-northwest,2.3,No
2016/05/30,16:00,0.449,0.259,0.476,0.420,0.392,0.210,0.184,north,3.2,No
2016/05/30,16:10,0.453,0.260,0.469,0.419,0.394,0.211,0.183,north,3.1,No
2016/05/30,16:20,0.450,0.259,0.475,0.415,0.390,0.210,0.182,north,2.8,No
2016/05/30,16:30,0.450,0.258,0.475,0.421,0.396,0.210,0.183,north-northeast,2.8,No
2016/05/30,16:40,0.452,0.261,0.473,0.414,0.391,0.209,0.183,north,3.2,No
2016/05/30,16:50,0.448,0.259,0.476,0.420,0.395,0.208,0.184,north,2.5,No
2016/05/30,17:00,0.451,0.260,0.470,0.417,0.393,0.210,0.184,north-northeast,2.0,No
2016/05/30,17:10,0.449,0.258,0.475,0.416,0.393,0.209,0.183,north-northeast,1.9,No
2016/05/30,17:20,0.454,0.259,0.474,0.420,0.394,0.211,0.183,north-northeast,1.8,No
2016/05/30,17:30,0.449,0.258,0.472,0.415,0.390,0.208,0.183,north,1.8,No
2016/05/30,17:40,0.452,0.258,0.477,0.419,0.395,0.211,0.184,north,2.2,No
2016/05/30,17:50,0.451,0.259,0.470,0.419,0.391,0.210,0.183,north,2.4,No
2016/05/30,18:00,0.447,0.257,0.476,0.417,0.392,0.209,0.184,north,2.8,No
2016/05/30,18:10,0.452,0.260,0.473,0.419,0.394,0.211,0.183,north-northwest,2.8,No
2016/05/30,18:20,0.449,0.259,0.473,0.416,0.390,0.209,0.184,north-northwest,3.1,No
2016/05/30,18:30,0.453,0.260,0.474,0.420,0.396,0.210,0.182,north,2.2,No
2016/05/30,18:40,0.451,0.259,0.470,0.418,0.390,0.210,0.183,north,1.4,No
2016/05/30,18:50,0.449,0.258,0.475,0.418,0.394,0.211,0.183,north,2.4,No
2016/05/30,19:00,0.451,0.260,0.472,0.421,0.392,0.210,0.182,north,2.2,No
2016/05/30,19:10,0.448,0.258,0.472,0.415,0.393,0.210,0.184,north,1.6,No
2016/05/30,19:20,0.453,0.260,0.476,0.420,0.391,0.209,0.182,northeast,0.7,No
2016/05/30,19:30,0.448,0.258,0.470,0.416,0.391,0.210,0.184,-,CALM,No
2016/05/30,19:40,0.452,0.261,0.477,0.421,0.394,0.211,0.183,northwest,0.6,No
2016/05/30,19:50,0.450,0.259,0.472,0.416,0.391,0.210,0.184,northwest,1.0,No
2016/05/30,20:00,0.447,0.259,0.476,0.420,0.394,0.210,0.183,north-northwest,0.7,No
2016/05/30,20:10,0.452,0.258,0.473,0.417,0.390,0.208,0.184,northwest,0.9,No
2016/05/30,20:20,0.448,0.260,0.474,0.418,0.395,0.211,0.183,west-northwest,0.8,No
2016/05/30,20:30,0.452,0.260,0.473,0.421,0.391,0.210,0.183,north,0.7,No
2016/05/30,20:40,0.448,0.260,0.473,0.416,0.395,0.211,0.183,-,CALM,No
2016/05/30,20:50,0.454,0.259,0.475,0.420,0.391,0.209,0.183,-,CALM,No
2016/05/30,21:00,0.449,0.260,0.470,0.414,0.394,0.211,0.183,south-southwest,1.0,No
2016/05/30,21:10,0.451,0.260,0.475,0.422,0.392,0.210,0.182,south-southwest,0.7,No
2016/05/30,21:20,0.449,0.259,0.469,0.416,0.392,0.210,0.183,south-southwest,1.0,No
2016/05/30,21:30,0.451,0.260,0.476,0.420,0.393,0.209,0.183,south-southwest,0.8,No
2016/05/30,21:40,0.453,0.259,0.472,0.417,0.391,0.211,0.183,-,CALM,Yes
2016/05/30,21:50,0.449,0.261,0.475,0.419,0.395,0.210,0.183,south-southwest,0.7,No
2016/05/30,22:00,0.453,0.259,0.473,0.421,0.391,0.209,0.183,south-southwest,1.6,Yes
2016/05/30,22:10,0.449,0.260,0.473,0.416,0.395,0.210,0.182,south-southwest,3.1,Yes
2016/05/30,22:20,0.453,0.258,0.475,0.419,0.389,0.210,0.183,south,3.3,No
2016/05/30,22:30,0.448,0.260,0.471,0.416,0.393,0.209,0.184,south-southwest,2.2,Yes
2016/05/30,22:40,0.452,0.258,0.475,0.421,0.390,0.211,0.184,south-southwest,2.1,Yes
2016/05/30,22:50,0.448,0.261,0.472,0.416,0.394,0.211,0.184,south-southwest,3.2,Yes
2016/05/30,23:00,0.454,0.259,0.476,0.422,0.393,0.212,0.184,south-southwest,4.9,No
2016/05/30,23:10,0.451,0.260,0.473,0.416,0.392,0.211,0.184,south-southwest,4.2,No
2016/05/30,23:20,0.450,0.260,0.477,0.420,0.394,0.209,0.183,south-southwest,3.5,No
2016/05/30,23:30,0.454,0.261,0.473,0.417,0.393,0.212,0.182,south-southwest,2.1,No
2016/05/30,23:40,0.448,0.259,0.475,0.417,0.393,0.210,0.184,south-southwest,1.5,No
2016/05/30,23:50,0.453,0.260,0.476,0.417,0.391,0.211,0.184,south-southwest,1.6,No
